Location: DARK SKY Beskydy - Park tmavé oblohy, www.darkskybeskydy.cz
(49.4926°N, 18.5016°E)
Time: 10:39:10
(UTC+01:00)

A-11 Canister half - Visible Passes

Search period start: 25 February 2024 00:00
Search period end: 06 March 2024 00:00
Orbit: 1512 x 1687 km, 47.2° (Epoch: 24 February)

Date Brightness Start Highest point End Pass type
(mag) Time Alt. Az. Time Alt. Az. Time Alt. Az.
25 Feb 10.0 01:41:43 35° ESE 01:41:43 35° ESE 01:47:34 10° ENE visible
25 Feb 9.0 03:39:54 54° WSW 03:42:37 76° S 03:52:26 10° E visible
25 Feb 9.2 05:38:05 12° W 05:47:29 74° SSW 05:57:06 10° ESE visible
26 Feb 10.3 01:19:51 29° E 01:19:51 29° E 01:24:34 10° ENE visible
26 Feb 9.0 03:18:01 64° SW 03:19:37 75° SSE 03:29:28 10° E visible
26 Feb 9.2 05:16:11 17° W 05:24:29 75° SSW 05:34:09 10° ESE visible
27 Feb 10.5 00:57:57 24° E 00:57:57 24° E 01:01:34 10° ENE visible
27 Feb 9.0 02:56:07 72° S 02:56:38 74° SSE 03:06:29 10° E visible
27 Feb 9.1 04:54:18 22° W 05:01:30 76° S 05:11:12 10° ESE visible
28 Feb 10.7 00:36:02 19° E 00:36:02 19° E 00:38:32 10° ENE visible
28 Feb 9.1 02:34:12 71° SE 02:34:12 71° SE 02:43:31 10° E visible
28 Feb 9.1 04:32:23 28° W 04:38:30 77° S 04:48:16 10° ESE visible
29 Feb 10.9 00:14:07 15° E 00:14:07 15° E 00:15:31 10° ENE visible
29 Feb 9.3 02:12:18 62° ESE 02:12:18 62° ESE 02:20:32 10° E visible
29 Feb 9.0 04:10:28 35° W 04:15:31 78° S 04:25:18 10° ESE visible
29 Feb 11.1 23:52:13 11° E 23:52:13 11° E 23:52:28 10° ENE visible
01 Mar 9.5 01:50:23 52° ESE 01:50:23 52° ESE 01:57:33 10° E visible
01 Mar 9.0 03:48:34 43° W 03:52:31 78° S 04:02:21 10° ESE visible
01 Mar 9.4 05:47:25 10° WNW 05:57:00 52° SSW 06:06:14 10° SE visible
02 Mar 9.8 01:28:28 42° E 01:28:28 42° E 01:34:34 10° E visible
02 Mar 9.0 03:26:39 53° W 03:29:30 79° S 03:39:23 10° ESE visible
02 Mar 9.4 05:24:49 11° WNW 05:34:03 54° SSW 05:43:23 10° SE visible
03 Mar 10.1 01:06:34 34° E 01:06:34 34° E 01:11:34 10° E visible
03 Mar 9.0 03:04:45 65° WSW 03:06:30 79° S 03:16:24 10° E visible
03 Mar 9.3 05:02:55 16° W 05:11:06 56° SSW 05:20:30 10° SE visible
04 Mar 10.3 00:44:41 27° E 00:44:41 27° E 00:48:35 10° E visible
04 Mar 8.9 02:42:52 77° SW 02:43:29 80° S 02:53:27 10° E visible
04 Mar 9.2 04:41:02 21° W 04:48:09 58° SSW 04:57:37 10° SE visible
05 Mar 10.6 00:22:49 22° E 00:22:49 22° E 00:25:36 10° E visible
05 Mar 9.0 02:21:00 78° SSE 02:21:00 78° SSE 02:30:28 10° E visible
05 Mar 9.2 04:19:11 27° W 04:25:11 60° SSW 04:34:44 10° SE visible
